Weather History for KEVV - September, 2013

Change the Weather History Date:

Friday, September 13, 2013

  Actual Average Record
Temperature  
Mean Temperature 65 °F 70 °F  
Max Temperature 75 °F 83 °F 99 °F (1939)
Min Temperature 55 °F 58 °F 40 °F (1940)
Degree Days  
Heating Degree Days 0 1  
Month to date heating degree days 0 3  
Since 1 July heating degree days 0 4  
Cooling Degree Days 0 6  
Month to date cooling degree days 149 102  
Year to date cooling degree days 1341 1301  
Growing Degree Days 15 (Base 50)    
Moisture  
Dew Point 51 °F    
Average Humidity 61    
Maximum Humidity 80    
Minimum Humidity 41    
Precipitation  
Precipitation 0.00 in 0.11 in 1.35 in (1977)
Month to date precipitation 1.20 1.31  
Year to date precipitation 36.53 32.23  
Snow  
Snow 0.00 in 0.00 in 0.00 in ()
Month to date snowfall 0.0 0.0  
Since 1 July snowfall 0.0 0.0  
Since 1 September snowfall 0.0 0.0  
Snow Depth 0.00 in    
Sea Level Pressure  
Sea Level Pressure 30.05 in    
Wind  
Wind Speed 7 mph (NNE)    
Max Wind Speed 20 mph    
Max Gust Speed 25 mph    
Visibility 10 miles    
Events      
T = Trace of Precipitation, MM = Missing Value Source: NWS Daily Summary

Daily Weather History Graph

Daily Weather History Graph

Search for Another Location

Airport or City:

Trip Planner

Search our weather history database for the weather conditions in past years. The results will help you decide how hot, cold, wet, or windy it might be!

Date:

Astronomy

Sep. 13, 2013 Rise Set
Actual Time 6:30 AM CDT 7:00 PM CDT
Civil Twilight 6:03 AM CDT 7:27 PM CDT
Nautical Twilight 5:32 AM CDT 7:58 PM CDT
Astronomical Twilight 5:00 AM CDT 8:30 PM CDT
Moon 2:46 PM CDT (9/13) 12:03 AM CDT (9/13)
Length of Visible Light 13h 23m
Length of Day
12h 30m
First Quarter, 61% of the Moon is Illuminated
Sep 13
First Quarter
Sep 19
Full
Sep 26
Last Quarter
Oct 4
New
Oct 11
First Quarter

Hourly Weather History & Observations

Time (CDT) Temp. Dew Point Humidity Pressure Visibility Wind Dir Wind Speed Gust Speed Precip Events Conditions
12:54 AM 66.9 °F 55.0 °F 66% 30.00 in 10.0 mi North 3.5 mph - N/A   Clear
1:54 AM 66.0 °F 54.0 °F 65% 30.01 in 10.0 mi North 6.9 mph - N/A   Clear
2:54 AM 64.0 °F 54.0 °F 70% 30.01 in 10.0 mi North 6.9 mph - N/A   Clear
3:54 AM 61.0 °F 54.0 °F 78% 30.02 in 10.0 mi North 4.6 mph - N/A   Clear
4:54 AM 59.0 °F 53.1 °F 81% 30.03 in 10.0 mi NNE 3.5 mph - N/A   Clear
5:54 AM 59.0 °F 53.1 °F 81% 30.04 in 10.0 mi NNE 5.8 mph - N/A   Clear
6:54 AM 59.0 °F 53.1 °F 81% 30.06 in 10.0 mi North 6.9 mph - N/A   Clear
7:54 AM 62.1 °F 55.0 °F 78% 30.07 in 10.0 mi NNE 8.1 mph - N/A   Clear
8:54 AM 66.0 °F 55.9 °F 70% 30.08 in 10.0 mi NE 9.2 mph - N/A   Clear
9:54 AM 69.1 °F 53.1 °F 57% 30.09 in 10.0 mi NE 10.4 mph - N/A   Clear
10:54 AM 69.1 °F 50.0 °F 51% 30.10 in 10.0 mi NE 11.5 mph - N/A   Scattered Clouds
11:54 AM 72.0 °F 50.0 °F 46% 30.09 in 10.0 mi Variable 6.9 mph 19.6 mph N/A   Clear
12:54 PM 72.0 °F 50.0 °F 46% 30.08 in 10.0 mi North 12.7 mph 20.7 mph N/A   Scattered Clouds
1:54 PM 73.0 °F 50.0 °F 44% 30.06 in 10.0 mi North 10.4 mph 20.7 mph N/A   Scattered Clouds
2:54 PM 73.9 °F 48.0 °F 40% 30.05 in 10.0 mi North 13.8 mph 20.7 mph N/A   Scattered Clouds
3:54 PM 73.9 °F 48.9 °F 41% 30.04 in 10.0 mi NNE 15.0 mph 20.7 mph N/A   Partly Cloudy
4:54 PM 73.0 °F 48.0 °F 41% 30.04 in 10.0 mi NNE 15.0 mph 19.6 mph N/A   Scattered Clouds
5:54 PM 71.1 °F 46.9 °F 42% 30.05 in 10.0 mi NNE 10.4 mph - N/A   Clear
6:54 PM 66.0 °F 48.0 °F 52% 30.05 in 10.0 mi North 4.6 mph - N/A   Clear
7:54 PM 62.1 °F 48.9 °F 62% 30.06 in 10.0 mi Calm Calm - N/A   Clear
8:54 PM 60.1 °F 48.9 °F 67% 30.07 in 10.0 mi NE 6.9 mph - N/A   Clear
9:54 PM 57.9 °F 48.9 °F 72% 30.08 in 10.0 mi NE 5.8 mph - N/A   Clear
10:54 PM 55.9 °F 48.0 °F 75% 30.08 in 10.0 mi NE 3.5 mph - N/A   Clear
11:54 PM 55.9 °F 48.0 °F 75% 30.09 in 10.0 mi Calm Calm - N/A   Clear